Lid_Strength_Index
-1 0 3 4 8 8 11 10 7 8 7 5 4 6 6 6 7 9 1 0 -0 -0 -1 -1 -1 -1 -1 -1 -1 -1 -2 -2 -1 -1 -1 -2 -1 -1 -1 -1 -1 -1 -1 -1 -1 -1 -1 -1 -1
2 3 6 6 9 11 11 8 8 7 6 4 4 5 6 7 4 4 2 0 -1 -1 -1 -1 -1 -1 -1 -1 -1 -1 -1 -1 -1 -1 -1 -1 -1 -1 -1 -1 -1 -1 -1 -1 -1 -1 -1 -1 -1
5 7 8 7 9 11 11 8 7 6 5 5 5 4 5 6 4 3 1 -0 -1 -1 -1 -1 -1 -1 -1 -1 -2 -1 -2 -1 -1 -1 -1 -1 -1 -1 -1 -1 -1 -1 -1 -1 -1 -1 -1 -1 -1
6 7 9 8 10 9 8 7 6 6 5 4 4 6 4 2 3 1 -0 -0 -0 -1 -1 -1 -1 -1 -1 -1 -1 -1 -1 -1 -1 -1 -1 -1 -1 -1 -1 -1 -1 -1 -1 -1 -1 -1 -1 -1 -1
6 7 9 10 11 8 6 6 5 6 6 5 5 7 5 2 1 0 0 -0 0 -0 -1 -1 -1 -1 -1 -1 -1 -1 -1 -1 -1 -1 -1 -1 -1 -1 -1 -1 -1 -1 -1 -1 -1 -2 -2 -2 -2
7 8 8 9 9 8 6 5 5 6 5 5 5 5 5 2 2 1 0 -0 -1 -0 -1 -1 -1 -1 -1 -1 -1 -1 -1 -1 -1 -1 -1 -1 -1 -1 -1 -1 -1 -1 -1 -1 -1 -2 -2 -2 -2
8 8 10 9 10 9 7 5 6 6 6 7 4 7 4 3 1 0 0 -0 -1 -1 -1 -1 -1 -1 -1 -1 -1 -1 -1 -1 -1 -1 -1 -1 -1 -1 -1 -1 -1 -1 -1 -1 -2 -2 -2 -2 -2
9 8 8 9 10 9 6 5 5 5 6 3 5 8 7 2 1 0 0 0 -0 -0 -1 -1 -1 -1 -1 -1 -1 -1 -1 -1 -1 -1 -1 -1 -1 -1 -1 -2 -2 -1 -1 -1 -1 -1 -1 -2 -1
9 9 9 8 9 8 5 6 4 3 5 4 4 4 4 1 1 1 1 1 1 0 -0 -1 -1 -1 -1 -1 -1 -1 -1 -1 -1 -1 -1 -2 -1 -1 -1 -1 -1 -1 -1 -1 -1 -1 -1 -1 -1
8 9 9 8 6 7 6 5 5 5 5 5 4 3 2 2 2 2 2 2 1 1 0 -1 -1 -1 -1 -1 -1 -1 -1 -2 -2 -2 -1 -2 -1 -1 -1 -1 -1 -1 -1 -1 -0 -0 -1 -1 -1
8 9 8 6 5 5 6 6 5 5 7 5 5 4 2 2 2 2 2 1 1 0 0 -0 -1 -1 -1 -1 -1 -2 -2 -2 -2 -2 -2 -2 -1 -1 -1 -1 -1 -1 -1 -1 -1 -1 -1 -1 -1
9 6 6 6 5 5 6 5 6 5 5 3 3 3 2 3 3 2 2 2 1 1 0 -0 -1 -1 -1 -1 -1 -2 -1 -2 -2 -2 -2 -2 -1 -1 -1 -1 -1 -0 -0 -0 -1 -1 -2 -1 -1
9 6 6 5 5 5 5 6 6 5 4 3 3 3 3 3 2 2 3 3 2 2 1 1 -1 -1 -1 -1 -2 -1 -1 -1 -1 -1 -1 -1 -1 -1 -1 -0 1 0 -1 -1 -1 -1 -1 -1 -1
6 6 6 6 6 5 6 6 6 5 4 4 4 4 3 3 3 2 2 3 2 2 2 1 0 -1 -1 -1 -1 -1 -1 -1 -1 -1 -1 -1 -0 -0 1 1 -1 -1 -1 -1 -1 -1 -1 -1 -1
6 8 7 7 6 6 5 8 7 5 4 4 4 4 3 3 2 2 2 1 1 1 1 1 -0 -1 -1 -1 -1 -1 -1 -1 -0 0 -0 0 0 0 -1 -1 -1 -1 -2 -2 -2 -2 -2 -1 -1
8 8 10 7 6 6 6 9 6 4 5 5 4 4 4 3 3 2 1 1 1 0 0 -0 -0 -0 -0 -1 -1 -0 -0 0 1 1 1 1 1 -2 -2 -1 -1 -2 -2 -1 -1 -0 0 0 -0
8 10 10 9 6 7 7 8 6 4 5 5 5 4 4 3 3 2 1 1 1 0 0 0 -0 0 -0 -1 0 0 1 1 2 2 1 0 -0 -2 -2 -1 -1 -2 -1 -0 0 -0 -0 1 -0
10 11 10 10 8 7 8 8 7 5 5 5 5 5 4 4 3 2 2 1 1 0 0 0 0 -0 -0 1 1 2 2 2 2 2 1 -1 -1 -0 -1 -1 -1 -1 -0 0 -0 -0 -1 -0 0
10 9 10 8 7 8 8 8 7 6 6 6 5 5 5 4 3 2 2 1 1 1 1 1 1 0 1 2 2 3 4 3 3 1 -0 0 0 -1 -1 -0 -1 -1 -0 -1 -1 -0 -0 1 -0
10 9 9 10 8 8 8 9 7 6 6 5 5 5 5 5 4 3 2 2 2 1 1 1 1 1 1 1 2 3 4 4 2 2 1 0 0 -1 -1 -1 -1 -1 -0 -1 -1 -0 1 1 0
9 9 9 9 8 7 8 9 8 6 6 5 5 4 5 5 5 4 3 3 2 2 1 1 1 1 1 1 2 4 3 4 3 2 1 0 -1 -1 -1 -1 -1 -1 -1 0 -0 0 1 2 1
10 8 8 8 9 10 8 11 10 8 7 7 6 5 5 5 4 4 3 3 2 2 1 1 0 1 1 2 3 3 4 4 2 2 1 -0 -2 -1 -1 -2 -2 -2 -1 -1 0 0 0 1 2
8 8 8 7 8 9 10 11 8 8 9 7 6 5 5 4 4 4 3 3 2 1 1 1 1 1 2 3 3 4 3 1 1 1 -0 -1 -1 -2 -1 -2 -2 -1 -0 -1 -0 -1 -0 1 2
7 7 7 8 8 11 9 11 9 9 8 7 6 5 5 4 4 3 3 2 2 4 4 4 2 2 2 3 4 4 2 0 1 0 1 0 -0 -1 -1 -1 -2 -1 -1 -1 -0 -0 -0 0 1
8 8 11 12 12 12 10 11 9 7 6 6 6 5 4 4 4 4 4 3 4 5 5 4 3 2 2 3 3 2 1 0 0 0 0 0 0 0 -1 -1 -1 -0 -0 -0 -0 0 -0 1 1
8 8 11 14 13 12 10 11 9 6 5 5 5 5 4 4 4 4 4 3 5 4 5 3 2 2 2 3 3 2 0 0 0 -0 -0 0 0 -0 -1 -1 -0 0 0 1 -0 -0 1 1 1
9 10 8 11 11 11 10 9 7 6 6 6 6 5 5 4 4 4 3 3 4 4 3 2 2 1 2 2 2 2 -0 -0 -0 -1 -1 -0 -1 -1 -0 0 0 0 1 1 -0 1 1 1 2
8 8 10 10 14 14 12 11 10 8 7 6 6 6 5 5 4 4 4 3 3 3 3 2 2 1 1 0 2 1 0 -0 -0 -1 -0 -1 -0 0 1 2 1 1 1 1 1 1 1 2 2
9 9 10 9 10 12 13 11 7 7 6 6 5 5 5 5 5 4 3 3 2 3 3 3 3 2 1 1 1 1 0 -0 0 -0 -0 0 1 1 2 2 2 1 1 1 1 2 2 3 3
7 8 8 11 12 11 11 11 6 6 5 6 5 5 5 4 4 4 3 3 3 3 4 4 3 2 2 1 1 1 1 1 1 1 1 2 2 2 3 2 2 2 2 2 2 3 3 4 3